This is the latest recevied weather packets stored in our database for station/object VK4HIT-13. If no packets are shown the sender has not sent any weather packets the latest 10 day(s).
| Time | Temp. | Humidity | Pressure | Rain* | Wind** | Luminosity | Snow |
|---|---|---|---|---|---|---|---|
| 1778138067 | 21.67° C | 38% | 1015 hPa | 0 mm | - | - | - |
| 1778137767 | 21.67° C | 37% | 1014.9 hPa | 0 mm | - | - | - |
| 1778137467 | 21.67° C | 37% | 1014.9 hPa | 0 mm | - | - | - |
| 1778137167 | 21.67° C | 37% | 1014.8 hPa | 0 mm | - | - | - |
| 1778136867 | 22.22° C | 36% | 1014.7 hPa | 0 mm | - | - | - |
| 1778136567 | 22.22° C | 36% | 1014.7 hPa | 0 mm | - | - | - |
| 1778136267 | 22.22° C | 36% | 1014.7 hPa | 0 mm | - | - | - |
| 1778135967 | 22.22° C | 36% | 1014.5 hPa | 0 mm | - | - | - |
| 1778135667 | 22.78° C | 35% | 1014.6 hPa | 0 mm | - | - | - |
| 1778135367 | 22.78° C | 35% | 1014.5 hPa | 0 mm | - | - | - |
| 1778135067 | 23.33° C | 35% | 1014.6 hPa | 0 mm | - | - | - |
| 1778134767 | 23.33° C | 35% | 1014.4 hPa | 0 mm | - | - | - |
| 1778134467 | 23.33° C | 35% | 1014.4 hPa | 0 mm | - | - | - |
| 1778134167 | 23.33° C | 35% | 1014.4 hPa | 0 mm | - | - | - |
| 1778133867 | 23.89° C | 34% | 1014.5 hPa | 0 mm | - | - | - |
| 1778133567 | 23.89° C | 34% | 1014.5 hPa | 0 mm | - | - | - |
| 1778133267 | 23.89° C | 33% | 1014.5 hPa | 0 mm | - | - | - |
| 1778132967 | 24.44° C | 33% | 1014.5 hPa | 0 mm | - | - | - |
| 1778132667 | 25° C | 33% | 1014.4 hPa | 0 mm | - | - | - |
| 1778132367 | 25° C | 35% | 1014.4 hPa | 0 mm | - | - | - |
| 1778132067 | 24.44° C | 35% | 1014.2 hPa | 0 mm | - | - | - |
| 1778131767 | 24.44° C | 35% | 1014.2 hPa | 0 mm | - | - | - |
| 1778131467 | 24.44° C | 35% | 1014.3 hPa | 0 mm | - | - | - |
| 1778131167 | 24.44° C | 35% | 1014.3 hPa | 0 mm | - | - | - |
| 1778130867 | 24.44° C | 35% | 1014.3 hPa | 0 mm | - | - | - |
* Rain latest hour (hover to see other rain measurements)
** Current wind speed in m/s (hover to see current wind gust speed)